• In Germany
  • List of Countries
  • For 7 days
  • Water Temperature
  • Satellite Maps
  • Weather Map
  • Weather Widgets
  • user-avatar
    Login

    Hourly Weather Trypolis

    Today, 19 January, Friday

    Time Temperature Precipitation Wind Pressure Humidity
    00:00 +11°C° 2.2 mm 11 mps 746 mmHg 79%
    01:00 +11°C° 2.2 mm 11 mps 746 mmHg 79%
    02:00 +9°C° 0 mm 11 mps 745 mmHg 76%
    03:00 +8°C° 0.8 mm 11 mps 746 mmHg 74%
    04:00 +8°C° 0.8 mm 11 mps 746 mmHg 72%
    05:00 +8°C° 0.8 mm 11 mps 747 mmHg 70%
    06:00 +8°C° 0.3 mm 11 mps 748 mmHg 70%
    07:00 +8°C° 0.3 mm 11 mps 748 mmHg 70%
    08:00 +8°C° 0 mm 10 mps 749 mmHg 71%
    09:00 +9°C° 0.3 mm 10 mps 750 mmHg 69%
    10:00 +9°C° 0.3 mm 10 mps 751 mmHg 67%
    11:00 +9°C° 0.3 mm 10 mps 752 mmHg 65%
    12:00 +10°C° 0 mm 9 mps 753 mmHg 64%
    13:00 +10°C° 0 mm 8 mps 753 mmHg 62%
    14:00 +10°C° 0 mm 7 mps 754 mmHg 60%
    15:00 +10°C° 0 mm 6 mps 755 mmHg 61%
    16:00 +9°C° 0 mm 6 mps 756 mmHg 62%
    17:00 +9°C° 0 mm 5 mps 757 mmHg 62%
    18:00 +10°C° 0 mm 4 mps 758 mmHg 63%
    19:00 +10°C° 0 mm 4 mps 759 mmHg 63%
    20:00 +8°C° 0 mm 4 mps 760 mmHg 64%
    21:00 +8°C° 0 mm 4 mps 760 mmHg 64%
    22:00 +9°C° 0 mm 3 mps 761 mmHg 64%
    23:00 +9°C° 0 mm 3 mps 761 mmHg 63%

    Tomorrow, 20 January, Saturday

    Time Temperature Precipitation Wind Pressure Humidity
    00:00 +10°C° 0 mm 3 mps 762 mmHg 63%
    01:00 +10°C° 0 mm 3 mps 762 mmHg 62%
    02:00 +10°C° 0 mm 3 mps 763 mmHg 61%
    03:00 +10°C° 0 mm 3 mps 763 mmHg 60%
    04:00 +10°C° 0 mm 3 mps 763 mmHg 59%
    05:00 +10°C° 0 mm 3 mps 764 mmHg 58%
    06:00 +10°C° 0 mm 2 mps 764 mmHg 56%
    07:00 +12°C° 0 mm 2 mps 764 mmHg 55%
    08:00 +13°C° 0 mm 2 mps 765 mmHg 53%
    09:00 +14°C° 0 mm 2 mps 765 mmHg 53%
    10:00 +14°C° 0 mm 3 mps 765 mmHg 54%
    11:00 +16°C° 0 mm 3 mps 765 mmHg 54%
    12:00 +16°C° 0 mm 3 mps 765 mmHg 54%
    13:00 +17°C° 0 mm 3 mps 764 mmHg 54%
    14:00 +17°C° 0 mm 3 mps 764 mmHg 54%
    15:00 +16°C° 0 mm 3 mps 764 mmHg 56%
    16:00 +14°C° 0 mm 3 mps 764 mmHg 57%
    17:00 +14°C° 0 mm 2 mps 764 mmHg 58%
    18:00 +14°C° 0 mm 2 mps 765 mmHg 58%
    19:00 +14°C° 0 mm 2 mps 765 mmHg 58%
    20:00 +13°C° 0 mm 2 mps 765 mmHg 58%
    21:00 +13°C° 0 mm 2 mps 765 mmHg 57%
    22:00 +13°C° 0 mm 2 mps 765 mmHg 55%
    23:00 +13°C° 0 mm 2 mps 765 mmHg 54%

    Day after tomorrow, 21 January, Sunday

    Time Temperature Precipitation Wind Pressure Humidity
    00:00 +13°C° 0 mm 2 mps 765 mmHg 53%
    01:00 +13°C° 0 mm 2 mps 765 mmHg 52%
    02:00 +13°C° 0 mm 2 mps 765 mmHg 51%
    03:00 +13°C° 0 mm 2 mps 765 mmHg 49%
    04:00 +13°C° 0 mm 1 mps 764 mmHg 48%
    05:00 +13°C° 0 mm 1 mps 764 mmHg 46%
    06:00 +13°C° 0 mm 2 mps 764 mmHg 46%
    07:00 +14°C° 0 mm 2 mps 764 mmHg 45%
    08:00 +15°C° 0 mm 2 mps 764 mmHg 45%
    09:00 +16°C° 0 mm 2 mps 764 mmHg 45%
    10:00 +17°C° 0 mm 2 mps 764 mmHg 46%
    11:00 +19°C° 0 mm 2 mps 763 mmHg 46%
    12:00 +19°C° 0 mm 2 mps 762 mmHg 46%
    13:00 +19°C° 0 mm 3 mps 762 mmHg 46%
    14:00 +20°C° 0 mm 3 mps 761 mmHg 45%
    15:00 +19°C° 0 mm 3 mps 761 mmHg 46%
    16:00 +18°C° 0 mm 3 mps 760 mmHg 47%
    17:00 +17°C° 0 mm 3 mps 760 mmHg 48%
    18:00 +16°C° 0 mm 3 mps 760 mmHg 47%
    19:00 +16°C° 0 mm 3 mps 760 mmHg 45%
    20:00 +16°C° 0 mm 3 mps 760 mmHg 44%
    21:00 +14°C° 0 mm 3 mps 759 mmHg 43%
    22:00 +14°C° 0 mm 3 mps 759 mmHg 43%
    23:00 +14°C° 0 mm 3 mps 758 mmHg 42%

    22 January, Monday

    Time Temperature Precipitation Wind Pressure Humidity
    00:00 +14°C° 0 mm 3 mps 758 mmHg 42%
    01:00 +14°C° 0 mm 3 mps 757 mmHg 42%
    02:00 +14°C° 0 mm 3 mps 757 mmHg 41%
    03:00 +13°C° 0 mm 3 mps 756 mmHg 41%
    04:00 +13°C° 0 mm 3 mps 756 mmHg 41%
    05:00 +13°C° 0 mm 3 mps 755 mmHg 41%
    06:00 +13°C° 0 mm 3 mps 755 mmHg 41%
    07:00 +14°C° 0 mm 4 mps 755 mmHg 41%
    08:00 +14°C° 0 mm 4 mps 755 mmHg 41%
    09:00 +15°C° 0 mm 5 mps 755 mmHg 43%
    10:00 +16°C° 0 mm 6 mps 755 mmHg 45%
    11:00 +18°C° 0 mm 8 mps 754 mmHg 46%
    12:00 +18°C° 0.2 mm 8 mps 754 mmHg 50%
    13:00 +17°C° 0.2 mm 8 mps 754 mmHg 54%
    14:00 +17°C° 0.2 mm 9 mps 753 mmHg 58%
    15:00 +16°C° 0.4 mm 8 mps 753 mmHg 62%
    16:00 +16°C° 0.4 mm 8 mps 753 mmHg 67%
    17:00 +15°C° 0.4 mm 8 mps 754 mmHg 72%
    18:00 +15°C° 0.6 mm 8 mps 754 mmHg 74%
    19:00 +13°C° 0.6 mm 8 mps 754 mmHg 75%
    20:00 +14°C° 0.6 mm 7 mps 755 mmHg 77%
    21:00 +14°C° 0.6 mm 7 mps 755 mmHg 79%
    22:00 +14°C° 0.6 mm 7 mps 755 mmHg 80%
    23:00 +14°C° 0.6 mm 7 mps 754 mmHg 81%

    23 January, Tuesday

    Time Temperature Precipitation Wind Pressure Humidity
    00:00 +12°C° 0.6 mm 7 mps 754 mmHg 81%
    01:00 +12°C° 0.6 mm 8 mps 754 mmHg 82%
    02:00 +12°C° 0.6 mm 8 mps 753 mmHg 82%
    03:00 +12°C° 0.7 mm 8 mps 753 mmHg 82%
    04:00 +12°C° 0.7 mm 8 mps 753 mmHg 82%
    05:00 +12°C° 0.7 mm 8 mps 753 mmHg 83%
    06:00 +12°C° 0.3 mm 9 mps 753 mmHg 81%
    07:00 +12°C° 0.3 mm 9 mps 753 mmHg 78%
    08:00 +12°C° 0.3 mm 10 mps 753 mmHg 76%
    09:00 +12°C° 0.4 mm 10 mps 753 mmHg 74%
    10:00 +12°C° 0.4 mm 10 mps 754 mmHg 72%
    11:00 +12°C° 0.4 mm 10 mps 754 mmHg 69%
    12:00 +12°C° 0.3 mm 10 mps 754 mmHg 69%
    13:00 +12°C° 0.3 mm 10 mps 754 mmHg 68%
    14:00 +11°C° 0.3 mm 10 mps 754 mmHg 68%
    15:00 +11°C° 0.1 mm 9 mps 755 mmHg 67%
    16:00 +10°C° 0.1 mm 9 mps 756 mmHg 65%
    17:00 +10°C° 0.1 mm 8 mps 756 mmHg 64%
    18:00 +9°C° 0 mm 8 mps 757 mmHg 64%
    19:00 +9°C° 0 mm 8 mps 758 mmHg 64%
    20:00 +9°C° 0 mm 7 mps 758 mmHg 64%
    21:00 +9°C° 0 mm 7 mps 759 mmHg 64%
    22:00 +8°C° 0 mm 6 mps 759 mmHg 64%
    23:00 +8°C° 0 mm 6 mps 759 mmHg 63%

    24 January, Wednesday

    Time Temperature Precipitation Wind Pressure Humidity
    00:00 +8°C° 0 mm 6 mps 760 mmHg 64%
    01:00 +8°C° 0 mm 5 mps 760 mmHg 64%
    02:00 +8°C° 0 mm 4 mps 760 mmHg 65%
    03:00 +8°C° 0 mm 4 mps 760 mmHg 66%
    04:00 +9°C° 0 mm 3 mps 761 mmHg 66%
    05:00 +9°C° 0 mm 3 mps 761 mmHg 67%
    06:00 +9°C° 0 mm 3 mps 761 mmHg 66%
    07:00 +10°C° 0 mm 2 mps 762 mmHg 65%
    08:00 +10°C° 0 mm 2 mps 762 mmHg 64%
    09:00 +12°C° 0 mm 2 mps 762 mmHg 61%
    10:00 +13°C° 0 mm 2 mps 762 mmHg 57%
    11:00 +14°C° 0 mm 2 mps 762 mmHg 54%
    12:00 +14°C° 0 mm 2 mps 762 mmHg 54%
    13:00 +14°C° 0 mm 2 mps 762 mmHg 53%
    14:00 +14°C° 0 mm 2 mps 761 mmHg 52%
    15:00 +13°C° 0 mm 2 mps 762 mmHg 55%
    16:00 +13°C° 0 mm 2 mps 762 mmHg 57%
    17:00 +12°C° 0 mm 2 mps 762 mmHg 60%
    18:00 +12°C° 0 mm 2 mps 762 mmHg 60%
    19:00 +10°C° 0 mm 2 mps 762 mmHg 61%
    20:00 +10°C° 0 mm 2 mps 762 mmHg 62%
    21:00 +10°C° 0 mm 2 mps 762 mmHg 62%
    22:00 +10°C° 0 mm 2 mps 762 mmHg 62%
    23:00 +10°C° 0 mm 2 mps 762 mmHg 63%
    Show more